Home   Weather   31°09'N, 83°47'W   Past weeks
Flag for USA

Past Weather in 31°09'N, 83°47'W, USA — Yesterday and Last 2 Weeks

Now
90 °F

Broken clouds.


Feels Like: 102 °F
Forecast: 94 / 74 °F
Wind: 5 mph from North

Location: Valdosta Regional

Current Time: Jun 25, 2019 at 12:29:13 pm

Latest Report: Jun 25, 2019 at 11:53 am


Visibility: 10 mi

Pressure: 30.10 "Hg

Humidity: 63%

Dew Point: 76 °F

Location of 31°09'N, 83°47'WLocation

Past Weather in 31°09'N, 83°47'W — Graph

°F

31°09'N, 83°47'W Temperature Yesterday

Maximum temperature yesterday: 96 °F (at 3:53 pm)
Minimum temperature yesterday: 72 °F (at 11:53 pm)
Average temperature yesterday: 82 °F

High & Low Weather Summary for the Past Weeks

 TemperatureHumidityPressure
High96 °F (Jun 24, 3:53 pm)100% (Jun 11, 7:36 am)30.19 "Hg (Jun 11, 7:36 am)
Low64 °F (Jun 14, 5:53 am)34% (Jun 14, 5:53 pm)29.87 "Hg (Jun 12, 6:35 pm)
Average79 °F80%30.02 "Hg
* Reported Jun 10 11:18 am — Jun 25 11:28 am, 31°09'N, 83°47'W. Weather by CustomWeather, © 2019

Note: Actual official high and low records may vary slightly from our data, if they occured in-between our weather recording intervals... More about our weather records

Advertising

31°09'N, 83°47'W Weather History for the Previous 24 Hours

Scroll right to see more
 ConditionsComfort  
Time TempWeatherWind HumidityBarometerVisibility
11:28 am
Tue, Jun 25
89 °FBroken clouds.5 mph65%30.08 "Hg10 mi
10:53 am87 °FPartly sunny.3 mph72%30.09 "Hg10 mi
9:53 am85 °FPartly sunny.6 mph80%30.09 "Hg9 mi
9:41 am85 °FPartly sunny.3 mph80%30.08 "Hg8 mi
8:53 am81 °FFog.5 mph91%30.09 "Hg6 mi
7:53 am79 °FFog.3 mph94%30.08 "Hg4 mi
7:32 am78 °FFog.5 mph96%30.05 "Hg3 mi
7:07 am77 °FFog.No wind96%30.04 "Hg2 mi
6:53 am77 °FFog.No wind96%30.05 "Hg1 mi
6:34 am77 °FFog.No wind96%30.03 "Hg1 mi
6:03 am76 °FFog.No wind97%30.03 "Hg2 mi
5:53 am76 °FFog.No wind97%30.04 "Hg3 mi
5:40 am75 °FFog.No wind96%30.02 "Hg3 mi
5:21 am75 °FFog.No wind96%30.01 "Hg4 mi
5:12 am76 °FFog.No wind94%30.01 "Hg4 mi
3:53 am74 °FFog.No wind97%30.01 "Hg5 mi
2:53 am74 °FClear.3 mph94%30.01 "Hg8 mi
1:53 am75 °FClear.3 mph94%30.02 "Hg10 mi
12:53 am74 °FClear.5 mph91%30.03 "Hg10 mi
11:53 pm
Mon, Jun 24
72 °FClear.No wind93%30.03 "Hg10 mi
10:53 pm73 °FClear.3 mph94%30.04 "Hg10 mi
9:53 pm74 °FLight rain. Partly cloudy.No wind94%30.03 "Hg10 mi
9:24 pm73 °FLight rain. Passing clouds.3 mph90%30.02 "Hg8 mi
8:53 pm73 °FThunderstorms. Passing clouds.No wind90%30.01 "Hg10 mi
7:53 pm74 °FStrong thunderstorms. Fog.8 mph88%30.03 "Hg2 mi
7:35 pm88 °FThundershowers. Passing clouds.7 mph67%29.97 "Hg10 mi
6:53 pm90 °FSunny.6 mph61%29.97 "Hg10 mi
5:53 pm93 °FScattered clouds.3 mph52%29.97 "Hg10 mi
4:53 pm94 °FPassing clouds.3 mph49%29.98 "Hg10 mi
3:53 pm96 °FScattered clouds.5 mph46%30.00 "Hg10 mi
2:53 pm95 °FPassing clouds.6 mph47%30.01 "Hg10 mi
1:53 pm94 °FSunny.5 mph49%30.03 "Hg10 mi
12:53 pm92 °FSunny.3 mph52%30.03 "Hg10 mi
Weather by CustomWeather, © 2019

See weather overview